Theta_e
348 354 361 359 360 361 362 362 362 361 362 362 362 361 362 361 362 361 361 361 362 363 362 362 362 361 362 360 359 359 361 360 360 360 360 360 358 357 357 356 356 351 357
351 355 363 362 362 362 362 363 362 362 362 362 362 362 361 360 360 362 362 362 362 363 362 362 362 361 360 359 358 359 360 361 362 362 362 362 361 361 359 359 359 355 358
352 355 359 364 362 363 363 363 363 363 362 362 363 363 362 362 362 362 362 362 362 362 361 360 360 360 360 360 359 359 358 360 362 361 361 354 355 360 360 360 359 358 358
354 354 356 363 364 362 362 362 363 363 363 362 362 361 361 361 361 361 362 361 360 361 361 359 359 360 359 360 357 359 360 363 360 358 351 351 353 358 358 359 359 359 359
353 355 357 363 363 362 362 362 363 362 362 362 361 362 362 362 361 360 360 359 360 358 360 358 359 360 359 359 358 358 361 360 359 355 350 350 352 358 360 359 358 359 358
350 350 361 362 361 363 361 362 362 362 362 362 362 362 362 362 361 361 361 360 362 359 359 359 359 359 359 359 359 358 361 361 358 351 351 352 351 358 358 357 357 358 357
347 350 354 363 362 361 362 362 362 361 362 362 363 362 362 361 361 361 362 361 361 360 357 357 357 358 358 358 361 360 361 358 351 351 351 350 352 360 360 359 358 357 356
352 354 354 360 361 361 362 362 362 361 363 363 364 361 361 361 363 362 361 361 359 358 357 355 354 355 355 357 361 363 361 357 350 347 348 348 356 356 355 354 354 353 353
352 352 352 352 357 362 363 362 362 361 362 363 362 360 362 363 362 362 360 359 358 356 353 354 352 352 352 354 359 364 357 354 342 345 347 348 357 356 358 356 356 355 351
350 352 350 351 352 352 355 362 361 362 361 363 362 360 362 362 361 361 364 363 359 358 356 354 353 353 353 354 358 362 355 352 343 347 347 349 357 353 352 352 350 350 349
347 347 349 349 349 349 352 356 360 362 362 362 361 362 353 350 351 355 359 360 359 357 356 356 356 356 356 357 357 355 354 339 341 345 347 355 355 351 350 349 349 350 350
342 344 347 347 347 348 354 350 351 349 343 346 343 341 343 346 348 354 356 359 359 358 356 358 359 359 357 351 349 354 349 340 341 342 345 355 354 351 350 350 350 349 350
341 345 345 346 346 345 347 345 347 343 340 341 337 339 342 344 345 351 350 350 349 355 349 349 352 354 352 351 351 347 343 345 343 343 349 356 354 351 350 350 351 351 352
340 344 345 346 343 346 344 343 343 337 336 338 338 340 339 343 343 344 346 347 346 345 337 336 343 348 344 345 347 346 338 338 339 343 349 356 357 353 353 353 353 353 353
340 341 343 344 346 347 345 344 339 337 338 340 339 341 342 341 342 345 344 343 339 343 343 340 341 341 344 344 341 344 333 335 337 345 347 357 358 356 354 353 353 354 355
340 340 343 343 347 347 344 342 338 337 337 341 339 340 340 341 343 344 340 341 341 343 340 343 342 343 339 338 336 336 334 334 336 340 344 347 358 358 357 356 356 357 357
341 342 342 344 347 345 344 345 338 342 343 340 340 340 339 342 344 342 343 343 342 342 343 347 348 344 343 340 337 338 336 335 335 336 339 342 348 359 357 358 360 361 361
342 341 342 347 344 343 343 343 343 344 344 341 341 343 345 347 349 346 342 342 346 346 346 345 346 344 339 340 338 337 338 337 334 334 336 337 341 343 351 360 361 361 361
341 340 339 339 342 344 344 344 343 345 346 344 345 346 346 348 350 347 347 346 345 343 344 344 342 339 338 338 338 338 339 337 338 340 336 336 337 341 340 349 359 361 362
341 340 339 340 343 343 346 346 342 344 347 351 347 346 347 348 351 346 336 334 338 341 340 345 341 346 337 337 340 340 337 337 338 339 337 341 340 341 341 342 344 352 360
342 341 340 342 342 341 343 341 340 340 342 348 348 349 350 349 352 346 337 332 339 339 343 345 339 345 339 340 338 339 336 338 338 340 341 341 341 343 344 344 345 346 348
341 340 341 343 341 342 342 344 342 342 343 347 351 350 351 350 351 347 340 330 341 344 341 346 347 343 343 340 338 338 327 333 336 338 340 342 339 344 345 347 345 346 353
339 341 343 343 343 346 346 343 345 344 345 344 344 346 346 350 351 347 343 337 342 338 336 344 348 346 342 342 335 339 329 326 334 333 336 340 342 342 341 342 346 348 351
341 344 344 345 345 345 346 340 341 338 337 340 343 346 348 350 351 349 345 343 342 330 340 345 353 345 342 337 343 339 337 335 330 329 336 337 334 342 341 339 343 346 353
343 344 345 347 344 345 345 342 338 338 339 343 344 346 346 348 349 351 349 345 334 335 344 348 349 336 338 334 337 341 336 336 335 332 328 332 331 336 342 343 345 345 349
343 344 344 345 342 344 345 345 341 342 340 342 344 344 345 345 347 349 349 347 344 346 345 349 350 341 331 332 339 339 336 335 333 330 327 324 325 333 340 343 343 342 345
Wind_Speed
3 5 10 11 11 12 12 13 14 14 14 15 16 18 17 17 16 16 17 16 16 16 16 16 15 16 16 15 16 16 16 17 16 16 15 15 13 15 16 16 14 11 14
9 7 11 12 12 13 13 14 14 14 14 15 16 18 18 17 16 16 15 16 14 15 16 15 15 15 15 15 15 15 16 17 17 18 17 18 16 16 15 15 14 11 13
11 9 9 12 13 13 13 13 14 14 15 15 16 16 16 17 17 16 16 15 14 15 14 14 15 15 14 14 13 13 11 11 16 18 17 5 8 15 15 15 14 14 13
11 8 8 12 13 13 13 13 14 14 15 15 15 15 16 17 17 17 17 16 14 14 14 13 14 14 14 15 14 14 9 14 16 15 6 6 10 15 15 13 14 13 12
9 6 10 13 13 14 13 12 13 14 14 16 15 14 16 16 17 16 15 15 14 13 12 12 13 13 13 12 11 11 13 16 16 12 7 6 4 10 13 13 13 12 12
9 6 12 16 14 14 13 12 14 14 14 15 16 15 14 15 15 14 13 14 12 13 12 10 12 11 10 10 8 10 14 15 13 7 5 7 5 12 13 12 12 12 10
8 7 9 13 14 14 13 13 13 14 14 14 14 15 13 13 13 13 13 13 12 11 10 9 8 9 8 8 6 13 14 15 8 6 6 5 6 11 12 11 11 12 8
12 8 9 13 13 14 12 14 13 14 14 14 14 14 13 12 12 12 12 12 11 9 9 7 5 5 6 8 11 14 14 13 9 6 5 4 8 9 10 9 9 8 7
10 8 6 7 11 14 14 14 13 14 13 14 13 13 11 12 12 11 10 10 9 7 5 5 3 2 3 6 8 10 12 13 5 4 6 3 7 9 8 8 8 7 6
10 8 7 6 6 5 6 14 13 13 13 13 14 13 10 12 11 11 7 7 8 6 5 3 3 4 5 4 6 7 13 13 4 4 4 2 6 7 7 7 6 5 4
6 5 4 7 6 5 5 8 11 13 13 12 11 13 8 4 4 6 6 7 6 4 2 1 2 4 4 5 5 2 11 3 4 3 3 7 6 7 7 5 4 4 3
10 8 6 7 6 6 6 5 5 6 4 5 5 6 4 3 2 4 4 6 6 4 1 4 5 6 5 1 2 4 1 4 3 3 3 8 7 7 6 5 4 3 3
9 6 8 8 5 5 5 3 3 2 3 3 5 5 3 3 3 2 1 1 2 2 3 4 5 4 5 4 2 2 1 4 3 3 5 8 7 6 6 5 5 5 5
6 8 9 8 6 6 4 3 4 3 3 3 3 4 2 2 3 1 1 2 1 2 2 4 3 4 5 5 6 4 5 3 3 2 5 9 7 7 7 6 6 6 6
6 6 8 9 7 6 5 3 4 3 3 4 3 3 3 1 1 3 4 3 2 2 1 4 3 4 5 6 4 5 7 5 5 3 2 10 8 8 8 8 8 8 8
9 7 7 8 8 9 6 6 4 2 3 3 3 3 2 3 3 4 3 3 3 3 4 3 4 3 4 4 4 4 8 6 5 5 3 4 9 10 10 10 10 10 11
10 8 8 7 12 8 10 5 4 4 4 3 2 1 6 1 3 6 4 1 3 3 5 5 4 3 2 3 2 4 4 6 5 6 4 3 4 11 12 12 11 11 12
8 10 7 8 10 8 10 7 4 3 4 3 3 4 5 6 6 2 4 2 3 2 2 2 2 3 1 1 2 1 3 4 5 5 5 4 4 4 8 13 13 12 12
9 8 5 8 8 8 7 6 6 6 4 4 4 5 6 4 5 4 4 2 1 2 3 3 3 2 1 1 3 3 4 3 5 4 5 5 6 5 4 8 13 13 14
11 10 8 5 7 6 5 4 4 4 4 5 5 3 5 5 5 3 3 2 3 4 4 4 3 2 2 2 2 3 2 4 2 3 5 5 5 6 6 6 4 6 13
10 7 10 7 6 4 2 3 2 3 2 1 3 5 5 5 5 3 2 2 2 5 3 3 2 4 4 3 1 2 1 4 4 5 2 4 4 5 6 5 4 3 6
14 10 12 8 7 4 3 2 3 3 1 1 1 3 2 6 6 5 4 3 6 3 6 5 3 2 1 5 3 2 3 5 3 2 3 1 4 3 6 5 5 6 7
14 12 13 9 7 5 4 3 3 3 3 2 1 2 3 5 6 4 3 4 5 3 2 3 3 4 3 4 5 4 3 1 2 2 6 5 5 5 4 6 8 6 4
14 12 12 10 9 7 7 3 5 4 4 3 3 2 4 5 5 5 3 3 4 2 3 2 2 2 4 3 1 4 4 2 2 2 1 1 1 5 5 3 5 8 4
14 13 12 11 9 8 7 6 4 2 1 1 2 4 3 3 4 5 6 4 4 2 2 2 3 5 3 3 2 2 2 1 2 2 2 4 4 2 1 2 1 4 6
12 11 9 10 7 8 7 7 7 7 4 2 2 4 3 2 2 4 4 4 4 4 2 2 4 5 3 3 1 2 2 2 1 2 2 1 2 5 2 5 5 4 6
Wind_Direction
164 164 148 139 130 124 115 115 112 111 110 111 110 112 112 109 107 105 102 105 103 101 101 99 100 101 98 96 94 94 100 100 105 105 106 111 109 108 107 103 102 98 101
148 149 144 137 130 123 119 119 115 117 117 116 114 117 115 113 107 107 108 105 103 101 101 102 100 97 97 96 93 95 98 103 109 106 104 106 110 101 102 98 102 106 105
144 145 145 137 126 123 121 123 120 118 114 113 108 114 113 115 114 112 110 112 107 103 101 102 102 101 99 94 103 104 94 100 101 100 98 101 103 103 103 102 98 96 96
142 146 145 136 131 127 125 125 120 117 114 114 116 114 117 118 120 120 115 115 111 106 105 107 107 104 97 101 90 100 99 121 103 95 73 67 98 105 103 108 104 102 99
129 125 142 135 135 136 131 127 122 119 121 120 119 121 119 119 119 115 116 117 118 114 108 111 111 106 101 97 104 106 103 105 100 89 83 77 84 109 108 110 103 100 97
130 132 136 139 140 135 131 127 126 129 128 129 131 125 123 123 117 117 112 115 110 113 111 114 115 114 107 101 116 121 118 109 98 85 78 85 75 106 107 107 109 106 105
128 139 139 141 140 134 138 128 126 132 130 131 125 124 121 116 121 124 120 117 119 115 118 118 122 122 115 98 95 138 120 110 99 90 75 79 77 93 103 99 107 105 106
138 136 142 142 131 138 137 128 128 134 135 134 126 124 120 125 131 126 120 124 116 118 125 128 128 114 104 82 74 145 122 113 98 91 81 80 102 104 104 105 103 104 108
134 131 131 137 146 139 136 133 132 137 139 134 127 128 121 122 127 128 116 114 109 103 106 100 85 48 56 72 75 102 112 120 109 114 111 90 122 129 108 118 105 126 123
137 136 132 120 108 114 133 137 133 135 133 129 126 126 131 119 121 121 104 108 106 98 86 55 1 347 356 32 48 66 134 127 119 111 102 135 131 134 130 123 136 129 119
128 126 141 123 117 129 125 139 134 135 135 133 128 118 52 36 117 107 122 116 116 105 87 71 311 312 322 2 3 6 136 110 115 113 145 160 158 148 143 146 146 146 147
144 152 156 137 146 151 134 102 70 73 85 100 93 91 79 28 204 151 142 139 126 131 97 305 283 273 279 303 353 354 117 151 132 170 166 164 171 160 159 170 179 188 214
154 148 149 145 148 128 103 106 95 104 87 80 120 108 109 26 355 89 48 33 62 52 347 311 305 310 314 310 205 148 204 153 171 203 171 172 181 176 184 197 210 227 244
165 153 153 140 134 128 122 126 123 123 140 159 134 122 114 56 39 18 223 267 114 153 246 269 279 293 295 281 265 164 166 168 176 201 183 180 195 198 210 221 234 245 254
151 160 154 144 157 146 118 121 127 171 154 171 163 143 115 66 111 183 235 221 169 167 252 288 278 270 270 274 241 190 151 178 164 201 197 191 204 216 226 236 245 253 257
163 144 143 154 179 155 146 158 156 184 165 162 172 136 180 193 211 171 247 301 358 25 309 269 276 278 279 276 140 150 162 166 171 188 207 209 209 226 232 239 245 253 260
168 133 156 155 157 146 157 176 164 160 152 178 185 220 243 134 162 199 177 219 279 253 284 295 305 311 326 355 26 125 161 164 172 179 199 220 232 237 242 244 251 258 265
145 145 176 119 119 134 146 164 181 194 172 170 200 233 236 195 170 133 63 265 289 360 255 19 311 283 20 153 323 234 169 165 181 181 191 202 219 233 251 254 256 258 264
147 145 147 116 135 140 140 165 175 179 173 191 216 214 171 104 54 58 152 160 33 140 28 320 5 36 134 208 249 243 248 212 178 186 212 214 218 232 243 260 263 269 273
154 159 129 135 141 140 120 110 113 127 178 183 191 161 122 85 72 95 94 78 263 77 12 9 21 323 102 171 254 191 242 262 249 199 199 220 233 235 247 250 274 269 270
159 159 136 148 168 137 77 97 109 148 161 174 164 148 135 137 142 150 131 148 38 61 5 324 290 39 31 26 141 38 329 268 269 261 253 258 223 268 273 268 257 267 285
158 154 144 166 156 153 137 133 163 150 155 93 98 136 164 145 153 157 168 157 88 56 21 1 354 45 37 35 87 88 17 329 312 217 294 18 43 19 12 350 311 284 283
150 157 153 164 144 153 136 102 56 49 50 84 290 167 206 150 142 147 153 121 91 81 30 356 347 78 64 46 50 124 56 259 331 27 52 54 53 41 8 353 352 322 218
162 162 160 153 150 153 151 124 151 158 161 206 189 214 189 162 166 152 154 143 119 107 35 18 355 71 93 48 29 58 80 161 165 14 306 171 255 56 18 7 343 348 325
160 172 161 159 155 145 151 161 144 146 177 237 194 199 219 191 189 170 172 154 129 153 168 105 85 39 72 105 77 135 65 342 26 122 284 336 342 340 292 289 141 13 337
161 170 157 154 170 152 160 160 175 170 179 195 195 192 211 205 153 185 174 170 175 169 193 92 110 108 109 116 60 85 169 137 298 38 69 330 257 293 302 319 6 340 312